Regional Weather Roundup
Issued by NWS

Home | Current Version | Previous Version | Text Only | Print | Product List | Glossary Off
Versions: 1 2 3 4 5 6 7 8 9 10 11 12 13 14 15 16 17 18 19 20 21 22 23 24 25 26 27 28 29 30 31 32 33 34 35 36 37 38 39 40 41 42 43 44 45 46 47 48 49 50

000
ASUS44 KMEG 220910
RWRTN
TENNESSEE HOURLY STATE WEATHER ROUNDUP
NATIONAL WEATHER SERVICE MEMPHIS TN
400 AM CDT THU JUN 22 2017

TNZ002-004-019-021-049-052-054-088>092-221000-
WEST TENNESSEE

CITY           SKY/WX    TMP DP  RH WIND       PRES   REMARKS
MEMPHIS INTL   CLOUDY    78  72  81 SE14      29.84F
NWS MEMPHIS      N/A     75 N/A N/A MISG        N/A
JACKSON        CLOUDY    75  71  87 E7        29.91F
SOMERVILLE     CLOUDY    75  70  83 VRB5      29.87F
COVINGTON      CLOUDY    73  72  94 SE10      29.88F
UNION CITY     CLOUDY    75  70  83 SE6       29.93R
BOLIVAR        CLOUDY    75  70  83 E7        29.90F
PARIS          MOCLDY    73  70  88 SE7       29.94S
HUNTINGDON     CLOUDY    73  70  88 SE8       29.94S
LEXINGTON      CLOUDY    73  70  88 SE6       29.95F
SELMER         CLOUDY    73  70  88 SE7       29.93F
SAVANNAH       CLOUDY    73  70  88 CALM      29.93F
$$

TNZ008-025-027-028-033-062-065-066-221000-
NORTH MIDDLE TENNESSEE

CITY           SKY/WX    TMP DP  RH WIND       PRES   REMARKS
NASHVILLE      CLOUDY    74  67  78 S6        30.00F
PORTLAND       CLOUDY    72  68  88 SE6       30.00F
CLARKSVILLE    CLOUDY    72  67  84 SE7       29.98F
SMYRNA         CLOUDY    73  68  84 CALM      30.01F
COOKEVILLE     PTCLDY    73  66  78 SE3       30.04S
GALLATIN       CLOUDY    73  68  83 CALM      30.03S
CROSSVILLE     CLOUDY    69  64  84 S5        30.10S
$$

TNZ061-075-076-078-094-096-097-221000-
SOUTH MIDDLE TENNESSEE

CITY           SKY/WX    TMP DP  RH WIND       PRES   REMARKS
FAYETTEVILLE   CLOUDY    72  70  94 S7        30.01R FOG
TULLAHOMA      PTCLDY    72  64  78 SE6       30.04S
WINCHESTER     PTCLDY    73  66  78 S7        30.03S
MCMINNVILLE    PTCLDY    73  68  83 CALM      30.04S
COLUMBIA       CLOUDY    72  72 100 CALM      29.98S
SHELBYVILLE    MOCLDY    73  68  83 SE6       30.01S
$$

TNZ017-018-042-046-047-221000-
NORTHEAST TENNESSEE

CITY           SKY/WX    TMP DP  RH WIND       PRES   REMARKS
TRI CITIES     CLOUDY    65  63  93 CALM      30.12S
ELIZABETHTON   CLOUDY    64  63  94 CALM      30.13S
$$

TNZ012-013-036-069-073-074-221000-
CENTRAL EAST TENNESSEE

CITY           SKY/WX    TMP DP  RH WIND       PRES   REMARKS
KNOXVILLE      CLOUDY    73  67  81 CALM      30.07R
OAK RIDGE      CLOUDY    71  67  87 CALM      30.09S
DOWNTOWN KNOXV CLOUDY    70  68  94 CALM      30.07S
GATLINBURG     PTCLDY    68  64  88 CALM      30.08S
MORRISTOWN     CLEAR     70  68  94 CALM      30.09S
JACKSBORO      MOCLDY    68  68 100 CALM      30.12R
$$

TNZ083-085-099-221000-
SOUTHEAST TENNESSEE

CITY           SKY/WX    TMP DP  RH WIND       PRES   REMARKS
CHATTANOOGA    CLOUDY    73  67  81 CALM      30.05F
$$

SKY/WX REPORTED AS FAIR MEANS FEW OR NO CLOUDS BELOW
12 THOUSAND FEET.





USA.gov is the U.S. government's official web portal to all federal, state and local government web resources and services.